Location: Caltech
(34.1382°N, 118.1253°W)
Time: 13:29:52
(UTC-07:00)

Iridium 3 - Visible Passes

Search period start: 24 October 2014 00:00
Search period end: 02 November 2014 23:00
Orbit: 776 x 779 km, 86.4° (Epoch: 24 October)

Date Brightness Start Highest point End Pass type
(mag) Time Alt. Az. Time Alt. Az. Time Alt. Az.
24 Oct 8.8 04:59:40 10° ENE 05:00:48 11° ENE 05:01:56 10° E visible
24 Oct 5.5 06:36:49 10° N 06:41:59 68° W 06:47:08 10° S visible
24 Oct 7.6 19:30:19 10° SW 19:34:47 29° W 19:39:16 10° NNW visible
25 Oct 6.1 06:03:19 10° N 06:08:29 62° E 06:13:37 10° SSE visible
25 Oct 6.3 18:56:03 10° SSW 19:01:08 56° W 19:06:16 10° N visible
26 Oct 7.4 05:30:15 10° NNE 05:34:52 31° E 05:39:27 10° SE visible
26 Oct 5.5 18:22:27 10° S 18:27:37 75° E 18:32:49 10° N visible
27 Oct 8.4 04:57:52 10° NE 05:01:07 17° ENE 05:04:20 10° ESE visible
27 Oct 5.8 06:37:05 10° NNW 06:42:01 45° W 06:46:56 10° SSW visible
27 Oct 8.3 19:31:19 10° SW 19:35:01 20° W 19:38:44 10° NNW visible
28 Oct 5.5 06:03:21 10° N 06:08:35 88° W 06:13:47 10° S visible
28 Oct 7.2 18:56:31 10° SSW 19:01:18 37° W 19:06:06 10° NNW visible
29 Oct 6.6 05:30:01 10° N 05:35:02 47° E 05:40:01 10° SSE visible
29 Oct 5.9 18:22:31 10° S 18:27:42 73° W 18:32:55 10° N visible
30 Oct 7.7 04:57:09 10° NNE 05:01:21 24° E 05:05:32 10° SE visible
30 Oct 6.3 06:37:31 10° NNW 06:42:00 30° W 06:46:29 10° SW visible
30 Oct 8.6 19:32:57 10° WSW 19:35:17 13° WNW 19:37:37 10° NW visible
31 Oct 8.6 04:25:23 10° NE 04:27:33 13° ENE 04:29:43 10° ESE visible
31 Oct 5.5 06:03:31 10° N 06:08:38 59° W 06:13:44 10° SSW visible
31 Oct 7.9 18:57:15 10° SW 19:01:29 25° W 19:05:45 10° NNW visible
01 Nov 5.7 05:29:57 10° N 05:35:09 71° E 05:40:20 10° S visible
01 Nov 6.7 18:22:49 10° SSW 18:27:49 48° W 18:32:51 10° N visible
02 Nov 7.0 03:56:46 10° NNE 04:01:33 36° E 04:06:18 10° SSE visible
02 Nov 6.7 05:38:11 10° NW 05:41:57 21° W 05:45:42 10° SW visible
